météowapi.be MeteoWapi, Belgique

50° 38.40' N | 003° 22.32' E | 21 meter | Voir la carte

Historique Wunderground.com

23-sep-2017 09:15

Station:Lacrosse WS1640
Logiciel:weewx v3.4.0
Temps de fonctionnement de Weewx:270 Jours, 21 Heures, 36 Minutes
Temps de fonctionnement du Serveur:356 Jours, 21 Heures, 55 Minutes
Brouillard Valable du: 23-09-2017 08:59 Au: 10:59 Avertissement pour: Brouillard Niveau: Jaune info button
nederlands:
Vanochtend hangen er lokale mistbanken die het zicht kunnen beperken tot 100 m of minder.

français:
Ce matin, on prévoit localement des bancs de brouillard qui pourront limiter la visibilité à 100 m ou moins. 

Historique Wunderground.com

Données Historiques de MétéoKain
 
Journalier Rapport pour Septembre 23, 2017 Unitée:  Métrique    Impériale   Les deux
« Précédent Jour
Suivant Jour »
Journalier Hebdomadaire Mensuel Annuel Sur mesure
  Actuel: Max: Min: Moyenne:
Température: 7.2 °C 9.4 °C 6.3 °C 7.3 °C
Point de rosée: 5.3 °C 6.3 °C 4.3 °C 5 °C
Humidité: 88 % 88 % 81 % 85 %
Vent: 0.2 km/h 0.8 km/h 0 km/h 0 km/h
Rafales: 1.6 km/h 2.9 km/h - -
Vent:West - - ESE
Pression: 1024.3 hPa 1024.6 hPa 1023.6 hPa -
Pluie: 0 mm      
Historical Graphs
 
 
Données tabulaires pour Septembre 23, 2017
Heure Température Point de rosée Pression Vent Vent Rafales Humidité Pluie Taux (Horaire)
00:00 9.4 °C 6.3 °C 1024.3 hPa Calm     81 % 0 mm
00:10 9.3 °C 6.2 °C 1024.6 hPa Calm     81 % 0 mm
00:15 9.3 °C 6.2 °C 1024.6 hPa Calm     81 % 0 mm
00:25 9.1 °C 6 °C 1024.6 hPa Calm     81 % 0 mm
00:30 9 °C 5.9 °C 1024.6 hPa Calm     81 % 0 mm
00:40 8.8 °C 5.9 °C 1024.6 hPa Calm     82 % 0 mm
00:45 8.7 °C 5.8 °C 1024.6 hPa Calm     82 % 0 mm
00:55 8.6 °C 5.7 °C 1024.6 hPa Calm     82 % 0 mm
01:05 8.5 °C 5.6 °C 1024.6 hPa Calm     82 % 0 mm
01:15 8.4 °C 5.6 °C 1024.3 hPa SE 0.3 km/h 2.7 km/h 82 % 0 mm
01:20 8.5 °C 5.8 °C 1024.3 hPa SSE 0.8 km/h 2.7 km/h 83 % 0 mm
01:30 8.4 °C 5.7 °C 1024.3 hPa Calm   0.3 km/h 83 % 0 mm
01:35 8.3 °C 5.6 °C 1024.3 hPa Calm     83 % 0 mm
01:45 8.2 °C 5.5 °C 1024.3 hPa Calm     83 % 0 mm
01:50 8.2 °C 5.4 °C 1024.3 hPa Calm     83 % 0 mm
02:00 8 °C 5.3 °C 1024.3 hPa Calm     83 % 0 mm
02:10 7.9 °C 5.2 °C 1024.6 hPa Calm     83 % 0 mm
02:15 7.8 °C 5.3 °C 1024.6 hPa Calm     84 % 0 mm
02:25 7.7 °C 5.2 °C 1024.6 hPa Calm     84 % 0 mm
02:30 7.7 °C 5.1 °C 1024.6 hPa Calm     84 % 0 mm
02:40 7.5 °C 5 °C 1024.6 hPa Calm     84 % 0 mm
02:45 7.5 °C 5 °C 1024.6 hPa Calm     84 % 0 mm
02:55 7.3 °C 4.8 °C 1024.6 hPa Calm     84 % 0 mm
03:00 7.3 °C 4.8 °C 1024.6 hPa Calm     84 % 0 mm
03:10 7.4 °C 4.9 °C 1024.3 hPa Calm     84 % 0 mm
03:15 7.4 °C 4.9 °C 1024.3 hPa Calm     84 % 0 mm
03:25 7.2 °C 4.7 °C 1024.3 hPa Calm     84 % 0 mm
03:35 7.1 °C 4.8 °C 1024.3 hPa Calm     85 % 0 mm
03:45 7.1 °C 4.8 °C 1024.3 hPa Calm     85 % 0 mm
03:55 7.1 °C 4.8 °C 1024.3 hPa Calm     85 % 0 mm
04:00 7.1 °C 4.7 °C 1024.3 hPa Calm     85 % 0 mm
04:10 7.1 °C 4.8 °C 1024.3 hPa Calm     85 % 0 mm
04:15 7 °C 4.7 °C 1024.3 hPa Calm     85 % 0 mm
04:25 6.9 °C 4.6 °C 1024.3 hPa Calm     85 % 0 mm
04:30 6.9 °C 4.7 °C 1024.3 hPa Calm     86 % 0 mm
04:40 6.8 °C 4.6 °C 1023.9 hPa Calm     86 % 0 mm
04:45 6.8 °C 4.6 °C 1023.9 hPa Calm     86 % 0 mm
04:55 6.7 °C 4.5 °C 1024.3 hPa Calm     86 % 0 mm
05:05 6.7 °C 4.5 °C 1024.3 hPa Calm     86 % 0 mm
05:15 6.7 °C 4.6 °C 1023.9 hPa Calm     86 % 0 mm
05:20 6.8 °C 4.6 °C 1023.9 hPa Calm     86 % 0 mm
05:30 6.9 °C 4.7 °C 1023.9 hPa Calm     86 % 0 mm
05:35 7 °C 4.8 °C 1023.9 hPa Calm     86 % 0 mm
05:45 7.1 °C 4.9 °C 1023.9 hPa Calm     86 % 0 mm
05:55 7.3 °C 5.1 °C 1023.9 hPa NE 0.3 km/h 2.9 km/h 86 % 0 mm
06:00 7.2 °C 5.1 °C 1023.9 hPa ENE 0.6 km/h 2.1 km/h 86 % 0 mm
06:10 7.2 °C 5.1 °C 1023.9 hPa SE 0.5 km/h 1.6 km/h 86 % 0 mm
06:15 7.2 °C 5 °C 1023.9 hPa SE 0.3 km/h 1.6 km/h 86 % 0 mm
06:25 7.2 °C 5 °C 1023.9 hPa NE 0.2 km/h 0.2 km/h 86 % 0 mm
06:35 7.1 °C 4.9 °C 1023.6 hPa Calm     86 % 0 mm
06:45 6.9 °C 4.9 °C 1023.6 hPa Calm     87 % 0 mm
06:55 6.9 °C 4.9 °C 1023.9 hPa Calm     87 % 0 mm
07:05 6.8 °C 4.8 °C 1023.9 hPa Calm     87 % 0 mm
07:10 6.7 °C 4.7 °C 1023.6 hPa Calm     87 % 0 mm
07:20 6.5 °C 4.5 °C 1023.6 hPa Calm     87 % 0 mm
07:30 6.5 °C 4.5 °C 1023.9 hPa Calm     87 % 0 mm
07:35 6.4 °C 4.4 °C 1023.9 hPa Calm     87 % 0 mm
07:45 6.4 °C 4.4 °C 1023.9 hPa Calm     87 % 0 mm
07:50 6.4 °C 4.4 °C 1023.9 hPa Calm     87 % 0 mm
08:00 6.3 °C 4.3 °C 1023.9 hPa Calm     87 % 0 mm
08:10 6.3 °C 4.3 °C 1023.9 hPa Calm     87 % 0 mm
08:20 6.3 °C 4.3 °C 1023.9 hPa Calm     87 % 0 mm
08:25 6.3 °C 4.3 °C 1023.9 hPa Calm     87 % 0 mm
08:35 6.4 °C 4.4 °C 1023.9 hPa Calm     87 % 0 mm
08:40 6.4 °C 4.5 °C 1023.9 hPa Calm     88 % 0 mm
08:50 6.6 °C 4.7 °C 1024.3 hPa Calm     88 % 0 mm
08:55 6.7 °C 4.9 °C 1024.3 hPa Calm     88 % 0 mm
09:05 7 °C 5.1 °C 1024.3 hPa Calm   1.6 km/h 88 % 0 mm
09:10 7.2 °C 5.3 °C 1024.3 hPa West 0.2 km/h 1.6 km/h 88 % 0 mm
Données Historique de MétéoKain
Courtoisie de Weather Underground - 2 mb

Pub